Погода в Нуку Хива

Французская Полинезия     8°51′58″S   140°08′19″W
темп.,
°C
ветер,
м/с
пор.,
м/с
влажн.,
%
обл.,
%
осадки,
мм/ч
давл.,
гПа
погр.,
м
1 марта, пн
пн123:30+27в797884 0.1 1012957
02:30+27в897882 0.1 1011843
05:30+27в78764 0.0 1011824
08:30+27в67753 0.0 1014961
11:30+27в56786 0.2 1012771
14:30+27в457816 0.9 1010681
17:30+27вюв567613 0.3 1010810
20:30+27вюв77759 0.4 1012755
2 марта, вт
вт223:30+27вюв67741 0.0 1012656
02:30+27юв77742 0.1 1010750
05:30+27вюв78753 0.1 1011784
08:30+27вюв77753 0.1 1013705
11:30+27в67701 0.0 1011657
14:30+27в67741 0.0 1009768
17:30+27в667615 0.1 1009880
20:30+27в677422 0.1 1012785
3 марта, ср
ср323:30+27в56751 0.0 1011717
02:30+26всв44792 0.3 1010527
05:30+26в777812 0.8 1011657
08:30+26всв88798 1.1 1013720
11:30+27всв66773 0.1 1012682
14:30+27всв44713 0.1 1010661
17:30+27всв44691 0.0 1010681
20:30+27всв44711 0.0 1012695
4 марта, чт
чт423:30+27всв44710 0.0 1012691
02:30+27в55751 0.0 1010709
05:30+27в66754 0.0 1011742
08:30+27в67743 0.0 1013738
11:30+27в56731 0.0 1011756
14:30+27в66711 0.0 1009878
17:30+27вюв66744 0.0 1010852
20:30+27вюв77774 0.1 1012822
5 марта, пт
пт523:30+27вюв78764 0.0 1012830
02:30+27вюв78774 0.1 1010816
05:30+27вюв78773 0.0 1011876
08:30+27вюв67764 0.1 1013905
11:30+27в667726 0.1 1012871
14:30+27в788123 0.5 1009812
17:30+27вюв897926 0.4 1009824
20:30+27в897314 0.4 1011780